This is the latest recevied weather packets stored in our database for station/object WD9EKA. If no packets are shown the sender has not sent any weather packets the latest 10 day(s).
| Time | Temp. | Humidity | Pressure | Rain* | Wind** | Luminosity | Snow |
|---|---|---|---|---|---|---|---|
| 1777732593 | 10.56° C | 55% | 1015.2 hPa | 0 mm | - | - | - |
| 1777732233 | 10.56° C | 55% | 1015.1 hPa | 0 mm | - | - | - |
| 1777731873 | 10° C | 58% | 1014.8 hPa | 0 mm | - | - | - |
| 1777731513 | 9.44° C | 56% | 1015.2 hPa | 0 mm | - | - | - |
| 1777731153 | 8.89° C | 59% | 1015.3 hPa | 0 mm | - | - | - |
| 1777730793 | 9.44° C | 59% | 1015 hPa | 0 mm | - | - | - |
| 1777729713 | 8.89° C | 66% | 1015.2 hPa | 0 mm | - | - | - |
| 1777729353 | 8.33° C | 68% | 1015.1 hPa | 0 mm | - | - | - |
| 1777728993 | 8.33° C | 70% | 1014.8 hPa | 0 mm | - | - | - |
| 1777728633 | 7.78° C | 73% | 1014.9 hPa | 0 mm | - | - | - |
| 1777728273 | 7.22° C | 72% | 1014.8 hPa | 0 mm | - | - | - |
| 1777727913 | 7.22° C | 72% | 1014.9 hPa | 0 mm | - | - | - |
| 1777727553 | 6.67° C | 75% | 1015 hPa | 0 mm | - | - | - |
| 1777727193 | 7.22° C | 72% | 1014.9 hPa | 0 mm | - | - | - |
| 1777726833 | 7.22° C | 74% | 1015.1 hPa | 0 mm | - | - | - |
| 1777726473 | 6.67° C | 77% | 1015 hPa | 0 mm | - | - | - |
| 1777726113 | 6.11° C | 77% | 1015 hPa | 0 mm | - | - | - |
| 1777725753 | 6.11° C | 77% | 1015 hPa | 0 mm | - | - | - |
| 1777725393 | 6.11° C | 80% | 1014.8 hPa | 0 mm | - | - | - |
| 1777725033 | 6.11° C | 84% | 1014.7 hPa | 0 mm | - | - | - |
| 1777724673 | 5.56° C | 84% | 1014.7 hPa | 0 mm | - | - | - |
| 1777723953 | 5° C | 87% | 1014.8 hPa | 0 mm | - | - | - |
| 1777723593 | 5° C | 88% | 1014.7 hPa | 0 mm | - | - | - |
| 1777722873 | 4.44° C | 91% | 1014.1 hPa | 0 mm | - | - | - |
| 1777722513 | 4.44° C | 92% | 1014.2 hPa | 0 mm | - | - | - |
* Rain latest hour (hover to see other rain measurements)
** Current wind speed in m/s (hover to see current wind gust speed)